Terug naar catalogus

STARLINK-31978

ActiefCommunicatieVLEO
NORAD 60016·PAYLOAD·🇺🇸 United States

Gelanceerd Jun 8, 2024 vanaf Cape Canaveral Space Force Station

Loading…

Volgende Passages (komende 24 uur)

TLE

VersSource: CelesTrak SupGP

Epoch: Sep 14, 2026, 22:36 UTC

1 60016C 24111A   26257.94215278  .00052121  00000+0  16765-2 0  2576
2 60016  53.1574 275.4317 0001097  89.1747 318.9269 15.31668136    11

Volg STARLINK-31978 in realtime met AllMySat

Download on the App Store